Temp_Advection
nan nan nan nan nan nan nan nan nan nan nan nan nan nan nan nan nan nan nan nan nan nan nan nan nan nan nan nan nan nan nan nan nan nan nan nan nan nan nan nan nan nan nan nan nan nan nan nan nan nan nan nan nan nan nan nan nan nan nan nan nan nan nan nan nan nan nan nan nan
nan -1 -0 1 1 1 1 -0 -1 -1 -0 -0 -0 -0 -1 -1 -1 -1 -0 -0 0 0 -0 -0 -0 -0 -0 -0 0 0 0 0 0 0 0 0 0 0 0 0 0 0 0 0 0 0 0 -0 -0 -0 0 0 0 0 0 0 0 0 0 0 0 0 0 -0 -0 -0 -0 0 nan
nan -2 -1 0 1 1 1 1 -0 -0 -1 -0 -0 -1 -1 -2 -2 -2 -1 -0 0 -0 -0 -0 -0 -0 0 0 0 0 0 0 0 0 1 0 0 0 0 0 0 0 0 0 0 0 0 0 -0 -0 -0 -0 0 0 0 -0 -0 -0 0 0 0 0 0 -0 -0 -0 -0 0 nan
nan -1 -2 -1 0 1 1 1 0 0 0 -1 -1 -1 -2 -3 -2 -1 -1 -0 -0 0 0 0 0 0 0 0 0 0 0 0 0 1 1 1 0 -0 0 0 0 0 0 0 0 0 0 0 -0 -0 -0 -0 0 0 0 0 -0 -0 -0 -0 0 0 0 0 -0 -0 -0 0 nan
nan -0 -1 -2 -1 0 1 1 0 0 0 0 -1 -1 -2 -3 -2 -1 0 1 0 0 0 0 0 0 0 0 0 0 0 0 1 1 1 1 0 0 0 0 0 0 0 0 0 0 0 0 0 -0 -0 -0 -0 0 0 0 0 -0 -1 -1 -0 -0 0 -0 -0 0 0 -0 nan
nan -0 -0 -1 -1 -1 0 1 1 1 1 0 -0 -1 -1 -2 -2 -0 0 0 -0 -0 0 1 0 0 0 0 0 0 0 0 1 1 1 1 0 0 0 0 0 0 0 0 0 0 0 0 0 0 -0 -0 -0 -0 0 0 0 0 -0 -1 -0 -0 -0 0 -0 -0 0 0 nan
nan -2 -1 -0 -0 -1 -1 -1 -0 0 1 1 1 0 -0 -1 -1 -1 -1 -2 -2 -1 -0 0 0 1 0 0 0 0 0 0 0 1 1 1 0 0 0 0 0 -0 -0 -0 0 0 0 0 0 0 -0 -0 -0 -0 0 0 0 0 -0 -0 -0 -0 -0 -0 -0 0 -0 -0 nan
nan -1 -2 -2 -1 -0 -1 -2 -2 -0 2 3 1 0 0 0 0 -0 -1 -2 -3 -2 -1 0 0 0 0 0 0 0 0 0 1 1 1 0 0 0 0 0 -0 -0 -0 -0 0 0 0 1 1 0 -0 -0 -0 -0 0 1 1 0 -0 -0 -0 -0 -1 -1 -0 -0 -0 0 nan
nan -0 -1 -1 -2 -2 -2 -2 -2 -1 2 3 2 1 0 1 1 1 -1 -2 -3 -3 -2 -1 0 0 1 0 0 0 0 1 1 1 1 0 0 0 -0 -0 -0 -0 -0 -0 0 0 1 1 1 0 0 0 0 0 0 1 1 1 0 -0 -0 -0 -0 -0 -0 -0 -0 -0 nan
nan 0 0 -0 -1 -2 -2 -2 -2 -1 0 2 2 1 1 1 1 1 0 -1 -3 -3 -2 -1 -0 0 0 0 0 0 1 1 1 1 1 0 0 0 -0 -0 -0 -0 -0 -0 0 0 1 1 1 1 0 0 0 0 0 1 1 1 0 0 -0 -0 0 0 -0 -0 -0 -0 nan
nan 0 0 -0 -1 -1 -1 -1 -2 -2 -1 0 1 1 1 2 2 2 1 -0 -2 -3 -3 -2 -1 0 0 0 0 1 1 1 1 1 1 0 0 -0 -0 -0 -0 -0 -0 -0 -0 0 1 1 1 1 0 0 0 0 0 1 1 1 1 0 0 0 -0 -0 0 0 0 0 nan
nan 0 0 -0 -1 -1 -1 -1 -1 -1 -2 -2 -1 1 2 3 4 3 2 -0 -2 -3 -4 -3 -1 -0 0 0 0 1 1 1 1 1 0 0 -0 -0 -0 -0 -0 -0 -0 -0 -0 0 1 1 1 1 1 0 0 0 0 0 0 0 0 0 0 -0 -0 -0 -0 0 0 0 nan
nan 0 0 0 -1 -1 -1 -1 -0 -1 -2 -2 -1 0 2 4 5 3 1 -0 -2 -3 -4 -4 -2 -0 0 0 1 1 1 1 1 0 0 -0 -0 -0 -0 -0 -0 -0 -0 -0 -0 0 1 1 1 1 1 0 0 0 0 0 0 0 0 0 -0 -0 -0 -0 -0 -0 -0 0 nan
nan -0 0 0 -0 -1 -1 -1 -1 -1 -1 -1 -0 1 3 4 3 2 1 -0 -2 -4 -5 -4 -2 -0 0 1 1 2 1 1 0 0 0 0 -0 -0 -0 -0 -0 -0 -0 -0 -0 0 1 1 1 1 1 0 0 0 0 0 0 0 0 0 -0 -0 -0 -0 -0 -0 -0 -0 nan
nan -0 0 -0 -0 -1 -1 -1 -1 -1 -1 -0 1 2 3 2 2 1 -0 -1 -2 -4 -4 -3 -1 0 1 2 2 1 1 0 0 0 0 0 -0 -0 -0 -0 -0 -0 -0 -0 -0 0 0 0 0 0 0 0 0 -0 0 0 0 0 0 -0 -0 -0 -0 -0 -0 0 0 0 nan
nan -1 -0 -0 -0 -1 -1 -1 -1 -1 -0 0 1 1 1 1 0 -0 -1 -1 -2 -3 -2 -0 1 1 2 2 1 1 0 0 0 0 0 0 -0 -0 -0 -0 -0 -0 -0 -0 -0 0 0 0 0 0 0 0 0 0 0 0 -0 -0 0 0 0 -0 -0 -0 0 0 0 0 nan
nan -1 -0 -0 -0 -0 -1 -1 -1 -0 -0 0 1 1 1 0 -0 -1 -1 -1 -1 -0 0 1 1 1 2 1 1 0 0 1 0 0 -0 -0 0 0 -0 -0 -0 -0 0 0 0 0 0 0 0 0 0 0 0 -0 0 0 0 0 0 0 0 0 0 0 0 0 0 0 nan
nan -1 -0 -0 -0 -0 -0 -0 -0 -0 -0 0 1 1 1 0 -0 -0 -0 0 1 1 1 1 1 1 1 1 0 0 0 0 0 -0 -0 0 1 0 -0 -0 -0 -0 0 0 0 0 0 0 0 0 0 0 0 0 0 0 0 0 0 0 0 0 0 0 0 0 0 0 nan
nan -2 -1 -0 -0 -0 -0 0 0 -0 -0 0 0 0 0 -0 -0 -0 0 1 1 1 1 1 1 1 0 0 0 0 0 0 -0 -0 -0 1 1 0 -0 -0 -0 0 0 0 0 0 0 0 0 -0 -0 0 0 0 0 0 0 0 0 0 0 0 -0 -0 -0 0 0 0 nan
nan -2 -2 -1 -0 -0 0 0 0 0 0 0 0 -0 -0 -0 -0 0 0 0 0 0 0 0 0 0 0 0 0 0 0 0 -0 0 0 1 1 0 0 -0 0 0 0 0 0 0 0 0 0 0 0 0 0 0 0 0 0 0 0 0 -0 -0 -0 -0 -0 -0 -0 -0 nan
nan -1 -1 -1 -1 -1 -0 0 0 0 0 0 -0 -0 -0 -0 -0 0 0 0 0 0 -0 -0 -0 0 0 0 1 0 0 0 0 0 1 0 0 0 0 0 -0 0 0 0 -0 0 0 0 0 0 0 0 0 0 0 0 0 0 -0 -0 -0 -0 -0 -0 -0 -0 -0 -0 nan
nan -1 -1 -1 -1 -1 -0 -0 -0 -0 -0 -0 -0 -0 -0 0 0 0 0 0 0 0 0 0 0 0 1 1 0 0 0 0 1 1 0 0 0 0 0 0 0 0 0 0 -0 0 0 0 0 0 0 0 0 0 0 0 0 0 -0 -0 -0 -0 -0 -0 -0 -0 -0 -0 nan
nan -0 -1 -1 -0 -0 -0 -0 -0 -0 -0 -0 -0 0 0 0 0 0 0 0 0 0 0 1 1 1 1 1 0 1 1 1 1 1 0 0 0 0 0 0 0 0 0 -0 -0 0 0 0 0 -0 -0 -0 -0 -0 0 0 0 -0 -0 -0 -0 -0 -0 -0 -0 -0 -0 -0 nan
nan -0 -0 -0 -0 -0 -0 -0 -0 -0 -0 -0 -0 0 0 0 0 0 0 0 0 0 0 0 0 1 1 1 1 1 1 1 1 0 0 0 0 0 0 0 0 0 -0 -0 -0 0 0 0 0 0 -0 -0 -0 -0 0 0 0 -0 -0 -0 -0 -0 0 0 0 0 0 0 nan
nan -1 -1 -1 -1 -0 -0 -0 -0 -0 -0 -0 -0 -0 0 0 0 0 0 0 0 0 0 0 0 0 0 0 1 1 1 0 0 0 0 0 0 0 0 0 0 0 0 0 -0 0 0 0 0 0 0 -0 0 0 0 0 -0 -0 -0 -0 -0 -0 -0 0 0 0 0 0 nan
nan -1 -1 -1 -1 -1 -1 -0 -0 -0 -0 -0 -0 -0 0 0 0 0 0 0 0 0 0 0 0 0 0 0 0 0 0 0 0 0 0 0 0 0 0 0 0 0 0 0 0 0 0 0 0 0 0 0 0 0 0 -0 -0 -0 -0 -0 -0 -0 -0 -0 -0 -0 -0 -0 nan
nan -0 -0 -0 -0 -0 -0 -0 -0 -0 -0 -0 -0 0 0 0 0 0 0 0 0 0 0 0 0 0 0 0 0 0 0 0 0 0 0 0 0 0 0 0 0 0 0 0 0 0 0 0 0 0 0 0 0 0 -0 -0 -0 -0 -0 -0 -0 -0 -0 -0 -0 -0 -0 -0 nan
nan -0 -0 -0 -0 -0 -1 -1 -0 -0 -0 -0 0 0 0 0 0 0 0 0 0 0 0 0 0 0 0 0 0 0 0 0 0 0 0 0 0 0 0 0 0 0 0 0 0 0 0 0 0 0 0 0 0 0 0 -0 -0 -0 -0 -0 -0 -0 -0 -0 -0 -0 -0 -0 nan
nan -0 -0 -0 -1 -1 -1 -1 -0 -0 -0 0 0 0 0 0 0 0 0 0 0 0 0 -0 -0 -0 -0 -0 0 -0 -0 -0 -0 0 0 0 0 0 0 0 0 0 0 0 0 -0 -0 -0 0 -0 -0 0 0 0 0 0 -0 -0 -0 -0 -0 -0 -0 -0 -0 -0 -0 -0 nan
nan -0 -0 -0 -1 -1 -1 -0 -0 -0 -0 0 0 0 0 0 0 -0 -0 0 0 0 0 -0 -0 -0 -0 0 0 0 0 0 0 0 0 0 0 -0 -0 -0 -0 0 0 -0 -0 -0 -0 -0 -0 -0 -0 -0 -0 -0 -0 -0 -0 -0 -0 -0 -0 -0 -0 -0 -0 -0 -0 -0 nan
nan -0 -0 -0 -0 -0 -0 -0 -0 -0 -0 0 0 0 0 0 -0 -0 -0 -0 -0 0 0 0 -0 -0 -0 0 0 0 0 0 0 0 0 0 0 -0 -0 -0 -0 -0 -0 -0 -0 -0 -0 -0 -0 -0 -0 -0 -0 -0 -0 -0 -0 -0 -0 -0 -0 -0 -0 -0 -1 -1 -0 -0 nan
nan -0 -0 -0 -0 -0 -0 0 0 -0 -0 -0 0 0 0 -0 -0 -0 -0 -0 -0 -0 0 0 0 0 0 0 0 0 0 0 0 0 0 0 0 0 -0 -0 -0 -0 -0 -0 -0 -0 -0 -0 -0 -0 -0 -0 -0 -0 -0 -0 -0 -1 -1 -1 -1 -0 -0 -0 -0 -0 -0 -0 nan
nan -0 -0 -0 -0 -0 0 0 -0 -0 -0 -0 -0 0 -0 -0 -0 -0 -0 -0 -0 -0 -0 -0 0 0 0 0 0 0 0 0 0 0 0 0 0 0 0 -0 -0 -0 -0 -0 -0 -0 -0 -0 -0 -0 -0 -0 -0 -0 -0 -0 -1 -1 -1 -1 -1 -1 -1 -0 -0 -0 -0 -0 nan
nan -0 -0 -0 -0 -0 -0 -0 -0 -0 -0 -0 -0 -0 -0 -0 -0 -0 -0 -0 -0 -0 -0 -0 -0 0 0 0 0 0 0 0 0 -0 -0 -0 -0 -0 -0 -0 0 -0 -0 -0 -0 -0 -1 -1 -1 -1 -1 -1 -1 -1 -0 -0 -1 -1 -1 -1 -1 -2 -1 -1 -0 -0 -0 0 nan
nan -0 -0 -0 -0 -0 -0 -0 -0 -0 0 0 0 -0 -0 -0 -0 -0 -0 -0 -0 -0 -0 -0 -0 -0 -0 -0 -0 -0 -0 -0 -0 -0 -0 -0 -0 -0 -0 -0 -0 -0 -0 -0 -0 -0 -0 -1 -0 -0 -1 -1 -1 -1 -1 -0 -0 -0 -0 -1 -1 -1 -2 -1 -1 -0 -0 -0 nan
nan -0 -0 -1 -0 -0 -0 -0 -0 -0 0 0 0 0 0 0 0 -0 -0 -0 -0 -0 -0 -0 -0 -0 -0 -0 -0 -0 -0 -0 -0 -0 -0 -0 -0 -0 -0 -0 -0 -0 0 0 -0 -0 -0 -0 -0 -0 -0 -0 -0 -0 -0 -0 -0 -0 -0 -0 -0 -1 -1 -1 -1 -1 -1 -0 nan
nan -0 -0 -0 -0 -0 -0 -0 -0 -0 -0 -0 -0 -0 -0 0 0 -0 -0 -0 -0 -0 -0 -0 -0 -0 -0 -0 -0 -0 -0 -0 -0 -0 -0 -0 -0 -0 -0 -0 -0 -0 -0 0 0 0 0 -0 -0 -0 -0 -0 -0 -0 -0 -0 -0 -0 -0 -0 -0 -0 -0 -1 -1 -1 -1 -1 nan
nan -0 -0 -0 -0 -0 -0 -0 -0 -0 -0 -0 -0 -0 -0 -0 -0 0 -0 -0 -0 -0 -0 -0 -0 -0 -0 -0 -0 -0 -0 -0 -0 -0 -0 -0 -0 0 0 -0 -0 -1 -1 -0 0 0 0 -0 -0 -0 -0 -0 -0 -0 -0 -0 -0 -0 -0 -0 -0 -0 -0 -0 -0 -0 -1 -1 nan
nan -0 -0 -0 -0 -0 -0 -0 -0 -0 -0 -0 -0 -0 -0 -0 -0 0 0 -0 -0 -0 -0 -0 -0 -0 -0 -0 -0 -0 -0 -0 -0 -0 -0 -0 -0 -0 0 0 -0 -0 -1 -1 -0 0 0 0 -0 -0 -0 -0 -0 -0 -0 -0 -0 -0 -0 -0 -0 -0 -0 -0 -0 -0 -0 -1 nan
nan -0 -0 -0 -0 -0 -0 -0 -0 -0 -0 -0 -0 -0 -0 -0 -0 -0 0 0 -0 -0 -0 -0 -0 -0 -0 -0 -0 -0 -0 -1 -1 -0 -0 -0 -0 -0 -0 -0 -0 -0 -1 -1 -0 -0 0 0 0 0 0 -0 -0 -0 -0 -0 -0 -0 -0 -0 -0 -0 -0 -0 -0 -0 -0 -0 nan
nan nan nan nan nan nan nan nan nan nan nan nan nan nan nan nan nan nan nan nan nan nan nan nan nan nan nan nan nan nan nan nan nan nan nan nan nan nan nan nan nan nan nan nan nan nan nan nan nan nan nan nan nan nan nan nan nan nan nan nan nan nan nan nan nan nan nan nan nan
Wind_Speed
28 29 30 32 33 33 34 34 33 31 28 26 26 26 27 28 26 22 19 18 18 16 15 15 15 16 17 18 19 18 18 17 17 17 17 17 18 18 18 17 17 16 16 17 17 17 17 18 18 18 18 18 18 19 20 20 20 20 20 20 20 20 19 19 19 19 19 19 19
28 28 29 31 32 33 33 33 33 32 30 29 27 27 27 28 28 26 24 23 22 21 20 20 20 20 20 20 19 18 18 17 17 17 17 18 18 18 18 18 18 17 17 17 16 16 17 17 18 18 18 18 19 19 20 20 21 21 21 21 21 21 21 21 21 20 20 20 20
29 28 28 30 30 29 28 28 29 32 32 32 31 31 31 30 29 28 27 26 25 24 24 23 23 22 22 20 19 19 18 18 18 18 18 18 18 19 19 19 18 18 17 17 17 16 16 17 18 18 18 19 19 19 19 20 20 21 21 21 21 21 21 21 21 21 21 21 21
30 29 29 30 30 29 27 25 23 22 23 26 29 32 33 33 31 29 28 28 27 26 25 24 24 23 22 21 20 19 19 19 19 19 18 18 18 19 19 18 18 18 17 17 17 17 17 17 18 19 19 19 19 19 19 19 20 20 21 21 21 21 21 20 20 20 20 21 21
32 30 30 31 31 30 28 26 23 20 17 16 19 23 26 28 29 28 27 27 27 27 26 25 24 23 22 21 20 20 20 20 20 19 18 18 18 18 18 18 17 17 18 18 18 18 18 19 19 20 21 21 20 20 20 19 19 20 21 22 22 22 21 20 20 19 20 20 20
35 33 31 31 32 32 32 30 28 24 19 16 15 16 17 19 21 23 25 26 26 26 25 24 23 22 22 21 21 20 20 20 20 19 18 18 18 18 17 18 18 18 19 19 19 20 20 21 22 22 23 23 23 23 22 22 22 22 22 23 23 23 22 21 21 20 19 19 19
35 35 34 32 32 33 34 35 36 35 31 27 23 20 18 17 18 20 23 25 26 26 25 23 22 21 21 20 20 20 20 20 19 19 18 18 18 18 18 19 19 20 20 21 22 22 23 23 24 25 26 26 25 25 25 25 24 24 24 24 25 25 24 23 23 22 21 20 20
34 35 35 34 33 34 37 40 42 43 41 36 32 28 25 22 20 21 23 25 26 26 25 24 23 22 21 20 20 20 20 20 19 19 19 18 18 19 19 19 20 20 21 22 23 24 25 26 26 27 27 28 28 27 27 26 25 25 24 25 25 25 25 25 25 24 23 22 21
31 32 33 33 32 33 35 39 42 44 44 42 39 35 32 29 25 23 23 25 27 27 27 26 25 24 23 22 22 22 22 21 20 19 19 19 18 18 18 18 18 19 20 21 22 24 25 26 27 28 29 29 29 28 28 27 26 24 24 24 24 24 24 24 24 24 23 23 22
29 29 29 29 29 31 33 36 38 41 43 44 43 41 39 36 32 28 26 27 29 29 29 28 27 26 25 25 25 24 23 22 20 19 18 17 16 15 15 16 16 17 18 19 21 22 24 25 26 27 28 28 28 28 28 28 27 25 25 25 24 24 23 22 21 20 20 20 21
27 27 27 26 26 27 30 33 35 37 40 43 44 45 45 44 41 36 32 30 31 32 31 31 29 28 27 26 26 25 23 21 19 17 15 14 13 14 14 15 16 16 17 18 19 20 22 23 23 24 25 25 26 26 26 26 26 26 25 25 25 24 24 23 22 20 18 18 18
26 26 26 26 24 24 26 29 31 33 36 39 42 45 48 49 47 42 36 34 34 34 34 33 31 29 28 28 26 24 21 18 16 14 13 12 13 14 14 15 16 16 16 17 18 19 20 20 20 20 21 21 21 21 20 21 21 21 22 22 23 23 24 24 23 22 20 19 17
25 25 26 26 24 24 25 27 29 31 33 36 39 42 44 46 44 40 36 36 35 37 37 35 33 31 29 28 25 22 18 16 14 12 12 12 13 14 14 15 15 15 16 16 17 18 18 18 18 18 17 16 15 15 14 14 14 15 16 18 19 20 21 21 21 21 20 19 19
24 24 24 24 24 24 26 29 30 31 30 31 33 35 35 35 34 34 33 34 35 38 39 37 34 32 29 26 22 18 16 14 12 12 12 12 12 13 14 15 15 15 15 15 15 16 16 16 15 14 13 12 11 11 11 11 12 13 14 14 15 15 16 17 17 17 18 19 20
23 23 23 23 23 24 26 29 31 32 30 29 28 27 26 26 27 29 31 32 34 36 37 36 33 29 25 21 18 15 14 13 12 12 11 11 12 13 14 14 14 14 13 13 12 12 11 11 10 9 9 8 8 9 9 10 11 11 11 11 12 12 13 14 14 14 15 16 18
22 22 22 23 23 23 23 25 28 30 30 29 27 25 24 24 26 28 30 32 33 33 33 31 28 24 20 18 16 14 13 12 11 10 10 10 12 12 13 13 12 12 11 9 8 8 7 6 6 6 7 7 7 7 8 8 9 10 10 10 10 11 12 13 12 13 13 13 14
21 21 20 20 20 20 19 19 22 25 28 29 29 28 27 27 27 29 30 31 30 29 26 24 21 19 17 16 14 12 11 9 8 9 10 11 12 12 12 11 11 10 8 7 5 5 5 5 6 7 7 6 5 5 6 7 7 7 8 8 9 11 13 14 13 13 13 11 11
22 21 19 17 15 14 14 14 16 19 24 28 29 30 29 29 28 28 28 27 25 23 20 19 18 17 15 13 11 10 8 7 7 9 11 13 12 11 10 10 9 8 6 4 3 4 6 7 8 9 8 7 6 5 6 6 6 6 6 7 8 10 12 13 14 14 13 12 12
25 24 21 18 14 12 11 10 11 14 18 21 25 27 27 27 26 25 23 22 20 19 17 17 16 15 13 12 10 9 8 8 9 11 13 13 10 8 8 8 7 6 4 3 5 6 7 8 8 8 9 9 8 7 7 7 7 7 7 7 8 8 9 10 11 12 13 14 14
26 25 24 22 18 15 12 11 10 11 13 15 18 20 22 22 22 21 20 18 18 17 17 17 16 15 14 13 11 10 9 9 11 13 13 11 7 6 7 7 6 5 4 6 7 8 8 9 9 9 10 10 9 9 9 8 8 9 9 8 7 6 6 6 6 7 8 10 12
24 24 23 22 21 18 16 14 13 12 12 13 14 15 17 18 18 18 17 17 17 17 17 17 17 16 14 13 11 10 10 10 11 11 9 6 4 3 4 4 5 4 5 7 9 9 9 9 8 8 8 8 9 9 10 11 12 11 10 8 6 4 4 4 4 4 5 6 7
21 20 20 19 18 17 16 15 14 14 13 13 13 13 13 13 13 13 12 12 11 12 12 13 14 14 13 12 11 11 12 11 10 8 5 2 1 1 1 1 2 4 6 8 9 10 9 8 7 6 6 6 8 10 11 12 12 11 9 8 6 5 4 4 5 5 6 6 6
19 17 16 15 13 12 11 11 11 11 10 10 10 9 9 8 8 7 6 6 6 6 7 8 9 9 10 10 10 10 11 10 8 6 4 3 2 3 3 4 4 4 5 8 9 10 9 8 7 6 7 7 8 10 11 11 11 11 10 9 7 6 5 5 5 6 6 6 6
17 16 14 13 11 10 9 8 7 6 6 5 5 4 4 4 4 4 4 4 4 5 6 6 7 7 7 7 7 8 8 7 6 5 4 4 4 5 5 6 6 6 6 8 9 10 10 8 8 8 8 8 8 8 8 8 8 8 8 7 7 6 5 5 5 5 5 5 5
17 16 15 13 12 11 10 9 8 7 5 4 2 1 1 2 3 3 3 3 3 4 4 5 6 8 9 9 8 7 6 5 5 5 6 6 6 6 6 6 6 6 6 7 8 9 8 8 7 7 7 7 7 6 5 4 4 4 5 5 4 4 4 4 5 5 4 4 4
17 16 15 14 13 12 11 10 9 8 6 5 3 2 2 3 4 4 4 3 3 3 4 5 6 7 9 9 9 7 6 5 6 7 8 8 7 6 6 6 5 5 5 6 7 7 7 7 7 7 8 8 7 6 5 5 5 5 5 5 5 4 4 4 4 4 4 4 4
17 15 14 13 13 12 12 11 10 8 6 5 3 3 4 4 4 4 4 4 4 3 3 4 5 6 7 7 7 7 6 6 7 8 9 8 7 6 5 5 6 5 4 5 5 5 5 6 6 7 8 8 8 7 6 5 5 6 6 6 6 6 5 5 5 5 5 5 5
16 14 14 13 13 13 13 12 10 8 7 5 5 4 4 4 4 4 4 4 4 3 4 4 5 5 4 4 4 5 5 5 6 7 7 7 7 6 6 7 7 6 4 3 3 3 4 4 6 7 8 9 9 8 7 6 5 5 5 6 6 6 6 6 6 6 6 7 7
15 14 14 14 14 14 14 13 11 9 8 7 6 6 5 4 3 3 3 3 3 3 4 6 5 4 2 2 2 3 5 5 5 6 6 8 9 9 9 8 8 6 4 2 1 2 2 3 4 5 6 7 8 8 8 7 7 7 7 6 6 6 7 7 8 8 8 8 8
14 14 14 15 16 16 15 13 12 10 8 7 7 6 5 4 4 3 2 2 1 2 5 7 6 4 3 2 2 4 6 8 8 8 9 10 11 11 11 9 7 5 2 0 1 1 1 2 2 3 4 5 5 6 8 9 9 10 10 10 9 9 9 9 10 10 10 10 10
14 14 14 16 17 16 15 14 13 12 9 7 6 6 6 7 6 5 3 2 1 1 3 5 5 2 1 1 3 5 8 10 12 13 13 14 14 13 13 12 9 6 3 2 2 2 1 1 1 2 3 5 6 7 8 10 11 12 13 14 14 13 13 13 13 12 12 12 11
14 14 14 16 17 16 15 14 14 13 11 8 6 7 8 9 8 6 4 3 2 2 1 3 3 2 2 2 4 5 7 8 10 11 12 12 12 12 12 12 11 9 7 5 4 4 3 3 3 4 5 6 8 9 10 11 13 14 15 16 17 17 17 16 15 14 13 12 10
13 13 13 15 16 16 15 15 15 14 12 10 7 7 8 9 9 7 5 4 4 4 3 2 3 3 3 4 5 6 6 5 4 4 3 3 3 4 4 5 7 7 6 6 5 6 6 7 8 8 8 9 10 10 11 12 13 14 15 16 18 18 18 18 17 16 14 11 9
12 12 12 14 15 16 15 15 14 14 13 12 9 7 7 8 8 7 6 5 4 4 4 3 2 2 2 2 2 3 3 2 1 1 3 3 3 3 2 1 1 1 3 5 6 8 9 10 11 11 11 11 10 10 10 11 11 12 13 14 16 17 17 17 16 15 13 11 9
12 12 13 14 15 15 14 14 13 14 14 14 12 9 7 6 6 6 5 5 4 4 4 4 3 2 2 3 3 4 4 4 3 4 5 5 5 6 5 5 4 4 5 6 7 8 9 10 12 12 12 11 9 8 8 8 8 9 10 11 12 13 13 13 12 12 11 10 10
14 14 15 15 15 15 14 13 12 13 13 14 13 11 8 6 5 5 5 5 5 4 4 3 3 4 4 4 5 5 6 6 5 5 5 5 6 6 7 7 7 7 7 7 7 7 8 9 11 12 11 10 8 7 7 7 6 6 6 7 8 9 10 10 9 9 9 9 9
16 16 16 16 16 15 14 12 11 11 12 13 13 11 8 5 3 3 4 5 5 5 4 4 3 4 4 4 5 5 5 5 5 5 5 4 5 5 6 7 9 10 10 10 9 7 6 7 9 10 10 9 8 7 7 6 5 4 4 5 5 7 8 8 8 8 7 7 6
16 16 16 15 15 15 14 13 12 11 11 12 12 11 8 5 2 0 2 4 5 5 4 3 3 3 4 5 5 5 5 5 5 5 4 4 4 4 5 7 9 12 13 12 11 9 7 6 7 8 8 8 8 7 6 5 4 4 4 4 4 5 6 6 6 7 7 7 5
15 15 15 14 13 13 14 14 13 12 11 10 11 11 9 7 3 1 3 5 5 5 4 4 3 4 5 6 6 6 6 7 6 6 6 6 6 6 6 7 9 11 13 12 11 10 7 6 6 7 8 7 7 6 5 5 4 3 3 3 4 4 4 4 5 5 7 7 6
15 14 13 12 11 11 12 13 13 12 11 9 9 9 9 8 5 2 2 3 3 3 3 4 4 5 6 6 6 6 7 8 9 9 8 8 7 7 7 7 9 11 12 12 10 8 7 5 6 7 8 6 5 5 5 4 3 3 3 3 4 4 4 4 4 4 5 6 6
14 13 12 11 10 9 10 10 11 12 11 9 8 7 7 7 6 5 4 3 3 4 4 5 5 5 6 6 5 5 6 7 9 9 8 8 7 7 8 8 10 11 12 11 9 7 5 4 6 6 6 4 4 4 4 4 4 3 3 4 4 4 4 4 4 4 4 5 5
Wind_Direction
275 271 267 265 266 272 278 281 278 273 270 270 272 274 275 274 270 263 253 245 239 236 233 229 227 228 232 238 244 247 249 249 248 247 248 249 251 253 254 256 257 258 259 260 261 263 264 264 263 261 260 258 258 257 258 258 259 259 260 260 260 260 259 259 258 258 257 256 255
276 270 264 261 261 265 270 273 274 272 271 271 272 272 271 269 265 260 253 246 242 239 238 238 239 242 245 248 249 249 249 250 250 250 251 253 255 257 259 260 261 262 263 263 264 265 266 267 266 264 261 259 259 258 258 259 259 259 260 260 261 261 261 260 260 259 258 257 256
279 272 265 260 260 264 268 272 273 273 274 274 272 270 267 263 259 255 252 250 249 249 248 248 249 250 250 251 251 251 252 254 255 257 258 260 262 264 265 266 267 268 268 268 267 267 268 268 268 266 264 263 261 261 262 262 262 261 261 260 261 262 262 261 261 260 259 257 256
284 274 267 262 260 261 264 267 271 275 278 279 276 270 264 258 253 250 249 251 253 253 252 251 250 250 250 250 251 253 254 256 258 260 262 264 265 267 269 269 270 270 270 270 270 269 269 269 270 269 268 266 265 264 265 266 267 266 264 262 262 262 262 262 261 260 259 258 256
291 279 269 263 259 258 258 260 263 268 275 282 280 273 265 257 250 247 246 248 249 248 247 246 246 248 249 250 252 253 255 256 258 259 260 261 262 265 267 268 269 270 270 271 271 271 271 271 271 271 270 268 267 266 266 267 268 269 268 266 264 263 262 262 261 260 259 258 257
297 289 278 268 261 256 254 253 253 255 260 267 270 273 273 268 260 255 252 250 247 244 242 242 244 247 250 252 254 255 255 256 256 257 257 258 259 262 264 266 269 270 272 273 273 273 273 273 272 272 271 270 268 267 267 267 267 268 268 268 267 265 263 262 262 261 260 260 259
299 295 289 278 267 258 254 251 250 251 251 252 254 258 265 270 268 265 262 257 253 249 246 246 247 250 252 255 256 257 256 256 256 257 257 258 260 263 266 268 271 273 275 275 276 276 275 274 274 273 272 272 271 269 268 268 268 268 268 268 268 267 266 265 263 262 262 262 262
296 295 293 288 278 267 259 255 253 253 251 249 248 249 251 254 256 259 261 260 257 254 253 252 252 253 255 258 260 260 259 258 257 257 258 260 263 266 269 272 274 276 276 277 277 277 276 275 274 273 272 272 271 270 270 269 268 267 267 267 267 267 267 267 266 265 264 264 263
293 292 291 291 286 278 269 261 257 255 252 249 246 245 245 246 248 252 257 258 256 255 254 253 252 252 254 255 257 259 259 258 257 258 261 263 266 269 272 274 276 277 278 278 278 278 277 276 274 273 272 271 271 270 269 267 266 264 264 264 264 265 265 266 266 266 266 265 265
293 290 288 286 285 282 276 270 263 258 253 249 246 243 243 243 244 247 251 254 254 254 252 251 250 249 250 252 254 255 256 256 257 259 261 263 266 269 272 275 277 279 280 280 280 280 279 277 276 274 273 271 270 269 268 266 263 261 260 261 261 260 260 260 260 261 263 263 264
296 291 288 284 282 279 276 272 266 260 255 251 247 245 244 244 244 244 246 249 251 251 250 249 248 247 248 250 252 253 253 254 255 256 258 262 267 271 276 279 282 283 283 283 282 282 281 279 278 276 274 273 271 270 268 266 264 262 260 259 259 258 257 255 254 253 253 255 257
299 294 289 285 280 274 270 266 264 262 259 257 253 249 247 246 245 244 243 245 247 249 249 247 246 245 246 248 250 251 250 249 249 251 257 265 273 279 283 286 286 286 285 283 282 281 280 279 278 277 275 274 273 271 270 268 266 264 262 260 259 258 257 256 254 251 249 249 250
302 296 292 288 280 272 266 263 263 263 262 261 257 251 247 244 242 240 239 241 243 245 246 245 244 244 244 245 246 245 243 241 243 251 263 273 282 287 290 291 290 287 284 281 279 278 277 276 275 275 274 274 273 272 270 267 264 262 262 262 262 262 261 260 258 255 252 249 247
304 298 295 292 287 278 270 266 264 263 260 255 251 245 239 235 232 231 231 233 236 239 240 241 242 241 240 239 238 235 232 234 243 256 269 280 290 295 296 295 292 288 284 281 279 278 276 275 274 274 273 273 271 269 266 262 259 257 258 260 262 263 264 263 260 258 254 250 248
305 300 297 296 294 288 279 271 266 261 254 245 238 230 222 217 217 218 221 223 227 231 234 237 237 235 232 228 224 222 226 234 246 259 273 286 296 300 299 296 292 289 287 286 282 277 275 275 275 274 273 271 271 270 267 263 259 257 256 257 258 258 257 255 254 252 251 251 251
305 301 299 298 296 291 282 271 263 256 248 239 230 220 212 207 208 211 215 218 222 226 229 232 230 226 219 214 213 217 226 237 249 263 277 287 295 298 296 292 289 289 290 290 285 278 270 265 267 266 262 263 270 274 274 270 264 258 253 251 250 248 245 241 241 240 241 247 252
306 302 300 298 296 290 280 268 258 250 243 238 233 226 220 215 213 214 216 219 221 224 224 223 219 212 207 207 212 220 230 242 256 269 278 284 290 291 288 284 284 285 286 286 284 274 256 239 240 240 242 252 264 270 268 263 255 248 241 238 239 239 238 235 235 232 231 236 241
306 300 296 294 291 285 277 268 258 247 242 240 238 235 230 225 221 219 218 218 218 217 214 211 208 206 206 211 219 228 237 250 264 272 277 281 285 284 281 278 279 278 276 267 245 228 222 220 225 230 238 252 256 249 236 230 226 226 228 233 237 241 242 241 240 236 232 231 231
306 298 292 286 279 271 266 263 257 249 242 240 239 238 235 230 226 222 219 216 213 209 207 207 208 211 216 222 232 242 250 259 265 269 273 276 277 274 270 271 271 267 247 208 205 211 216 219 226 239 251 260 251 232 218 217 223 234 245 251 253 253 253 251 249 243 239 237 237
309 301 294 287 279 268 257 251 247 243 239 236 236 236 235 234 233 231 228 223 218 214 213 215 219 223 229 235 244 251 256 257 260 264 268 271 267 261 263 270 269 257 222 203 211 218 225 232 243 255 261 259 244 234 233 241 252 262 268 269 265 262 262 264 262 255 249 246 246
311 305 299 293 285 275 264 255 249 244 240 237 236 236 237 238 240 239 237 232 227 223 221 223 226 230 235 240 243 247 249 249 252 256 262 264 257 256 268 277 273 253 226 218 227 233 239 244 251 256 256 250 245 249 260 270 274 275 274 272 269 270 279 292 295 288 278 266 258
315 310 305 299 292 284 275 267 261 256 252 247 244 242 240 238 236 234 230 227 222 218 217 219 223 227 230 233 234 237 239 238 239 240 240 229 216 223 243 255 253 239 229 228 235 242 248 252 256 260 262 262 265 271 276 278 277 272 267 263 262 269 281 291 291 287 281 273 264
322 318 314 309 303 297 289 282 275 268 262 255 248 243 237 229 222 214 208 205 202 198 195 194 199 206 212 216 219 222 224 221 219 215 200 168 178 198 208 208 215 222 228 230 237 244 251 258 269 282 291 293 290 286 281 275 268 262 256 252 252 254 260 264 265 262 259 254 250
329 327 325 323 321 318 315 310 303 294 282 268 254 238 223 206 188 175 170 178 184 184 179 172 168 167 165 165 180 196 203 201 199 192 179 165 179 197 209 216 221 225 229 232 235 240 248 259 274 288 295 295 290 283 275 266 260 255 252 249 247 247 250 251 250 247 240 232 228
333 332 332 332 333 332 332 331 330 327 322 314 306 289 152 132 130 133 144 162 170 166 156 147 144 144 142 140 144 154 166 174 174 169 168 169 181 194 207 216 216 216 218 223 227 233 243 256 270 278 280 277 270 265 265 270 274 276 275 272 268 266 264 262 259 253 245 236 228
337 337 337 338 339 340 341 341 341 339 338 339 346 21 78 100 109 117 128 137 139 135 132 132 137 140 143 144 144 145 149 156 157 160 165 171 181 191 201 206 197 186 187 207 218 228 238 251 261 265 266 264 265 270 280 293 301 305 307 308 308 308 308 308 304 297 286 277 267
342 342 343 344 346 348 350 351 352 353 355 3 23 59 85 98 104 114 120 124 123 122 126 133 136 139 143 148 152 155 155 157 158 161 167 174 177 179 182 181 170 164 174 201 218 229 240 250 256 261 264 269 277 287 297 306 310 311 311 313 315 318 323 329 333 335 332 325 315
346 348 348 349 352 355 358 360 2 6 14 27 44 64 78 86 92 99 107 113 114 116 120 125 133 138 140 143 157 168 171 167 163 165 169 172 168 159 151 152 148 145 151 183 216 237 247 251 254 258 264 271 282 296 312 325 331 329 323 317 316 315 316 319 323 328 330 330 327
350 352 353 354 356 359 2 7 11 16 25 40 50 58 64 68 72 77 86 98 102 102 104 110 120 123 113 101 145 178 186 183 177 175 174 169 159 147 136 134 136 136 138 162 239 266 261 253 252 257 263 271 281 293 305 317 325 329 330 329 325 321 317 314 313 314 316 318 319
353 356 358 358 359 2 8 15 17 21 28 43 52 57 63 70 72 72 72 81 97 106 108 110 113 107 89 88 121 151 160 160 162 164 165 162 153 140 127 119 118 122 121 13 335 330 299 264 258 264 275 287 296 305 311 315 318 321 324 326 327 326 324 319 315 313 312 312 313
357 360 0 359 1 6 15 22 21 19 23 37 49 60 70 76 75 73 69 48 8 119 130 134 136 135 118 119 143 143 140 139 139 139 140 140 138 131 121 110 101 94 78 36 13 3 346 313 294 299 308 314 318 321 322 322 321 320 321 321 321 321 321 320 317 314 312 312 312
2 2 1 359 2 9 19 24 19 14 14 26 43 59 67 68 65 60 49 19 340 335 77 138 150 172 216 205 176 161 150 142 135 130 127 125 123 120 116 108 98 87 72 46 23 4 343 325 312 310 311 314 316 319 320 321 320 319 317 316 315 314 314 314 313 311 310 308 308
7 6 1 359 3 11 20 22 15 10 10 18 32 49 58 58 52 41 25 6 340 333 349 48 101 131 159 170 161 158 158 158 149 133 122 116 116 117 117 114 105 91 70 42 13 351 336 323 315 310 307 308 310 313 316 318 318 316 314 311 308 307 305 305 304 303 302 300 296
10 8 3 360 4 10 17 19 14 11 14 20 26 34 44 46 41 33 20 7 349 330 329 354 45 90 116 123 117 116 122 129 102 6 356 351 346 339 326 300 253 52 27 6 351 342 336 329 323 319 317 316 316 318 320 323 321 318 314 311 308 304 301 299 298 296 293 289 282
8 7 4 1 4 10 15 17 16 17 21 23 23 26 32 35 31 30 30 23 8 347 332 334 354 21 34 28 27 31 33 28 19 8 3 3 2 0 356 345 333 328 336 347 348 349 346 338 332 330 333 338 339 336 333 332 327 322 319 316 314 311 308 305 300 295 288 280 272
360 1 3 4 6 10 15 17 18 20 22 21 20 20 23 27 26 38 49 48 39 29 16 4 5 15 25 28 27 26 24 20 16 13 11 12 14 13 5 350 338 332 333 342 349 355 353 343 334 332 337 347 351 350 346 341 334 328 325 326 324 323 323 322 317 306 293 280 271
354 357 1 5 9 11 14 15 16 17 16 15 16 17 16 18 25 50 62 61 60 55 47 34 30 31 31 29 27 24 20 15 14 13 12 11 17 18 7 347 331 321 318 319 325 334 343 340 327 323 327 336 342 344 345 346 343 338 338 340 339 338 340 343 339 327 312 298 282
354 357 3 8 11 12 12 12 11 9 8 9 13 14 12 4 350 146 111 95 82 73 66 55 48 39 30 19 12 4 358 353 351 348 345 340 338 343 343 335 325 317 312 310 312 314 320 325 312 310 316 326 335 343 349 353 355 354 353 356 358 358 360 2 359 348 339 332 322
356 1 6 10 13 12 11 9 7 4 1 3 11 14 10 0 348 206 157 133 110 96 86 72 54 36 22 12 2 349 338 330 328 328 326 321 315 311 313 321 325 322 317 314 314 314 315 318 312 309 313 324 339 352 359 3 5 4 5 9 15 18 18 20 18 11 2 359 1
357 2 6 9 12 12 11 8 5 2 357 357 6 14 15 10 10 30 129 133 116 95 73 53 37 26 19 15 7 355 341 330 327 326 325 323 319 314 313 319 329 332 330 327 326 323 323 327 325 320 321 333 353 8 11 6 2 359 7 22 26 26 27 30 32 30 25 21 20
355 358 0 1 4 6 7 6 5 2 357 352 357 10 20 22 24 26 27 27 29 33 33 27 22 19 19 18 14 6 355 346 337 334 333 333 331 325 322 326 336 341 341 338 335 333 334 352 350 338 330 345 8 22 20 4 352 354 14 30 30 26 26 29 32 36 42 46 42
Height
1439 1439 1439 1439 1440 1440 1440 1439 1439 1440 1440 1440 1440 1439 1438 1438 1438 1437 1437 1437 1437 1437 1437 1436 1436 1436 1436 1436 1437 1437 1437 1437 1437 1438 1438 1438 1439 1439 1439 1440 1440 1440 1440 1440 1440 1440 1440 1440 1440 1441 1441 1441 1442 1442 1442 1442 1442 1442 1442 1443 1443 1444 1444 1444 1445 1445 1446 1446 1446
1437 1437 1437 1437 1438 1438 1438 1438 1438 1438 1438 1438 1438 1437 1437 1437 1437 1436 1436 1435 1435 1434 1434 1434 1434 1434 1434 1435 1435 1436 1436 1436 1436 1437 1437 1437 1437 1437 1438 1438 1438 1439 1439 1439 1439 1439 1439 1439 1439 1439 1439 1440 1440 1440 1440 1440 1441 1441 1441 1442 1442 1442 1442 1443 1443 1443 1444 1444 1445
1435 1435 1435 1435 1436 1437 1437 1437 1437 1436 1436 1435 1435 1435 1435 1435 1435 1434 1434 1433 1433 1433 1433 1433 1433 1433 1433 1433 1434 1434 1434 1434 1435 1435 1435 1436 1436 1436 1436 1437 1437 1437 1437 1437 1437 1437 1437 1437 1437 1437 1437 1438 1438 1439 1439 1439 1439 1439 1439 1440 1440 1440 1441 1441 1442 1442 1442 1442 1443
1432 1432 1432 1432 1433 1434 1435 1435 1435 1435 1434 1433 1433 1433 1433 1433 1433 1432 1432 1432 1432 1432 1432 1432 1432 1432 1432 1432 1432 1432 1433 1433 1434 1434 1434 1434 1434 1434 1435 1435 1435 1436 1436 1436 1436 1436 1436 1436 1436 1436 1436 1437 1437 1437 1437 1437 1437 1437 1438 1438 1438 1439 1439 1439 1440 1440 1441 1441 1441
1430 1430 1430 1430 1431 1431 1432 1432 1433 1433 1432 1432 1432 1431 1431 1431 1430 1430 1430 1430 1430 1430 1430 1431 1430 1430 1430 1430 1431 1431 1432 1432 1432 1433 1433 1433 1433 1433 1433 1434 1434 1434 1434 1434 1434 1434 1434 1435 1434 1434 1435 1435 1435 1436 1436 1436 1437 1436 1436 1436 1437 1437 1437 1438 1438 1439 1439 1439 1439
1427 1427 1427 1427 1427 1428 1428 1429 1429 1429 1429 1429 1430 1430 1430 1429 1428 1429 1429 1429 1429 1429 1428 1428 1428 1429 1429 1429 1429 1429 1430 1430 1431 1431 1431 1432 1432 1432 1432 1432 1433 1433 1433 1433 1433 1433 1433 1433 1433 1433 1433 1433 1434 1434 1434 1435 1435 1435 1435 1435 1435 1435 1436 1436 1437 1437 1437 1437 1438
1426 1424 1423 1423 1424 1424 1424 1424 1424 1425 1425 1426 1427 1427 1427 1427 1427 1427 1428 1428 1428 1427 1427 1427 1427 1427 1427 1427 1428 1428 1428 1428 1429 1429 1430 1430 1430 1431 1431 1431 1431 1431 1431 1431 1431 1431 1431 1431 1431 1431 1431 1432 1432 1432 1432 1433 1433 1433 1433 1433 1433 1433 1434 1434 1435 1435 1436 1436 1437
1424 1422 1421 1420 1420 1420 1421 1421 1421 1421 1422 1423 1424 1425 1425 1425 1426 1426 1427 1427 1427 1426 1426 1425 1425 1425 1426 1426 1426 1427 1427 1427 1427 1428 1428 1428 1429 1429 1429 1429 1429 1429 1429 1429 1429 1429 1429 1429 1429 1429 1429 1429 1430 1430 1431 1431 1431 1431 1431 1431 1432 1432 1432 1432 1433 1433 1434 1434 1435
1422 1421 1419 1418 1417 1417 1417 1417 1417 1418 1418 1420 1421 1422 1423 1423 1424 1424 1425 1426 1426 1425 1425 1424 1424 1424 1424 1425 1425 1425 1426 1426 1426 1426 1427 1427 1427 1427 1427 1428 1427 1427 1427 1427 1427 1427 1427 1427 1427 1427 1427 1427 1427 1428 1428 1429 1429 1429 1429 1429 1430 1430 1430 1431 1431 1431 1432 1432 1433
1421 1419 1417 1417 1416 1415 1414 1414 1414 1415 1415 1416 1417 1419 1420 1421 1422 1422 1423 1423 1424 1424 1423 1423 1422 1422 1423 1423 1424 1424 1424 1424 1424 1425 1425 1425 1426 1426 1426 1426 1426 1426 1425 1425 1425 1425 1425 1425 1425 1425 1425 1425 1425 1426 1426 1427 1427 1427 1427 1427 1427 1428 1428 1429 1429 1430 1430 1431 1431
1419 1417 1416 1415 1414 1413 1412 1411 1411 1412 1412 1413 1414 1416 1417 1418 1419 1419 1420 1421 1421 1422 1422 1421 1421 1421 1421 1422 1422 1422 1422 1422 1423 1423 1423 1424 1424 1424 1424 1424 1424 1424 1424 1423 1423 1423 1423 1422 1422 1422 1422 1423 1423 1423 1423 1424 1424 1425 1425 1425 1426 1426 1426 1427 1427 1428 1429 1429 1429
1417 1415 1414 1412 1412 1412 1411 1409 1409 1409 1410 1411 1411 1412 1413 1414 1415 1417 1417 1418 1418 1419 1419 1419 1419 1419 1419 1420 1420 1420 1420 1421 1421 1422 1422 1422 1422 1422 1422 1422 1422 1422 1422 1422 1421 1421 1421 1421 1421 1421 1421 1421 1421 1421 1422 1422 1422 1423 1423 1423 1423 1424 1424 1425 1425 1426 1427 1427 1428
1415 1413 1412 1411 1410 1409 1409 1408 1407 1408 1408 1409 1409 1409 1409 1409 1411 1412 1414 1415 1416 1417 1417 1417 1417 1417 1417 1417 1418 1418 1418 1419 1419 1420 1420 1420 1420 1420 1420 1420 1420 1420 1420 1420 1420 1419 1419 1419 1419 1419 1419 1420 1420 1420 1420 1421 1421 1421 1421 1421 1422 1422 1422 1422 1423 1424 1425 1425 1426
1413 1412 1410 1409 1408 1408 1407 1407 1406 1406 1407 1407 1407 1406 1406 1406 1407 1409 1411 1412 1413 1414 1414 1414 1414 1414 1415 1415 1416 1416 1416 1417 1417 1417 1418 1418 1418 1418 1418 1418 1418 1419 1418 1418 1418 1418 1418 1418 1418 1418 1418 1418 1419 1419 1419 1419 1420 1420 1420 1420 1420 1420 1421 1421 1422 1422 1423 1423 1423
1412 1410 1409 1407 1407 1406 1406 1405 1405 1405 1405 1405 1404 1404 1404 1403 1404 1405 1407 1408 1410 1410 1411 1411 1412 1412 1412 1413 1413 1414 1414 1414 1414 1415 1415 1416 1416 1416 1417 1417 1417 1417 1417 1417 1417 1417 1417 1417 1417 1417 1417 1417 1418 1418 1418 1418 1418 1418 1418 1418 1419 1419 1419 1420 1420 1421 1421 1421 1421
1411 1409 1407 1406 1406 1405 1405 1404 1403 1403 1403 1402 1402 1402 1402 1401 1401 1402 1404 1405 1407 1407 1408 1409 1409 1410 1410 1411 1411 1411 1411 1412 1412 1412 1413 1413 1414 1415 1415 1416 1416 1416 1416 1415 1415 1415 1415 1415 1416 1416 1416 1417 1417 1417 1417 1417 1417 1417 1417 1417 1417 1417 1417 1417 1418 1418 1419 1420 1420
1410 1408 1407 1406 1405 1405 1404 1404 1403 1402 1402 1401 1401 1400 1400 1400 1400 1400 1402 1403 1404 1405 1406 1407 1407 1408 1408 1408 1409 1409 1409 1410 1410 1410 1411 1412 1412 1413 1414 1414 1414 1414 1414 1414 1414 1414 1414 1414 1415 1415 1415 1415 1416 1416 1416 1416 1416 1415 1415 1415 1415 1415 1415 1415 1416 1416 1417 1418 1418
1409 1408 1407 1405 1405 1404 1404 1403 1403 1402 1401 1400 1399 1399 1399 1399 1399 1399 1400 1401 1402 1402 1404 1405 1405 1406 1406 1406 1407 1407 1407 1408 1408 1408 1409 1410 1411 1412 1412 1413 1413 1413 1413 1413 1413 1413 1414 1414 1414 1414 1414 1414 1415 1415 1415 1415 1414 1414 1414 1414 1414 1414 1414 1414 1414 1415 1415 1416 1416
1408 1407 1406 1405 1404 1403 1403 1403 1402 1402 1401 1400 1399 1399 1399 1399 1399 1399 1399 1400 1400 1401 1402 1403 1403 1404 1404 1405 1405 1406 1406 1406 1406 1407 1407 1409 1410 1411 1411 1411 1412 1412 1412 1412 1412 1413 1413 1413 1413 1413 1413 1413 1414 1414 1414 1414 1414 1413 1413 1413 1414 1413 1413 1413 1413 1413 1413 1413 1414
1407 1406 1405 1404 1404 1403 1402 1401 1401 1400 1400 1399 1399 1399 1398 1398 1398 1398 1399 1399 1400 1400 1401 1402 1402 1402 1403 1404 1404 1405 1405 1405 1405 1406 1407 1408 1409 1410 1410 1410 1411 1411 1411 1412 1412 1412 1412 1412 1412 1412 1412 1413 1414 1414 1414 1413 1413 1413 1413 1413 1413 1413 1412 1412 1412 1412 1412 1412 1412
1407 1406 1405 1404 1403 1402 1402 1401 1400 1399 1398 1398 1398 1398 1398 1398 1398 1398 1398 1399 1399 1400 1400 1400 1401 1401 1402 1403 1403 1403 1403 1404 1404 1405 1406 1407 1408 1409 1409 1409 1409 1410 1410 1411 1411 1412 1412 1412 1412 1412 1412 1412 1413 1413 1413 1413 1413 1413 1413 1413 1412 1412 1412 1411 1411 1411 1411 1411 1412
1407 1406 1405 1403 1402 1402 1401 1400 1400 1399 1398 1398 1397 1397 1397 1397 1397 1398 1398 1399 1399 1399 1399 1399 1400 1400 1401 1402 1402 1402 1402 1402 1403 1404 1405 1407 1407 1408 1408 1409 1409 1409 1409 1410 1411 1411 1411 1411 1411 1411 1412 1412 1412 1413 1413 1413 1413 1413 1412 1412 1412 1411 1411 1411 1410 1410 1410 1411 1411
1408 1407 1405 1404 1403 1402 1401 1400 1399 1399 1398 1398 1397 1397 1397 1397 1397 1397 1398 1399 1400 1400 1400 1399 1399 1399 1400 1400 1400 1400 1401 1401 1402 1403 1405 1406 1407 1407 1407 1407 1408 1408 1408 1409 1410 1410 1410 1410 1410 1411 1411 1411 1412 1412 1412 1412 1412 1412 1412 1412 1411 1411 1410 1410 1410 1410 1410 1410 1410
1408 1407 1406 1404 1403 1402 1401 1400 1399 1399 1398 1398 1397 1397 1397 1397 1397 1397 1398 1400 1400 1401 1400 1400 1399 1398 1398 1398 1399 1399 1400 1401 1401 1402 1404 1405 1406 1406 1406 1406 1407 1407 1407 1408 1409 1409 1409 1410 1410 1410 1410 1411 1411 1412 1412 1412 1412 1412 1412 1411 1411 1410 1410 1409 1409 1409 1409 1410 1410
1409 1407 1406 1405 1404 1402 1402 1401 1400 1399 1398 1398 1397 1397 1397 1397 1397 1398 1399 1400 1401 1401 1401 1400 1399 1399 1398 1398 1398 1399 1400 1400 1401 1402 1403 1404 1405 1405 1405 1406 1406 1406 1407 1407 1408 1408 1409 1409 1409 1410 1410 1410 1411 1411 1411 1411 1411 1411 1411 1411 1410 1410 1409 1409 1409 1409 1409 1409 1409
1409 1408 1407 1406 1404 1403 1402 1401 1400 1399 1399 1398 1397 1397 1397 1397 1398 1399 1400 1401 1401 1402 1402 1401 1400 1399 1398 1398 1398 1399 1400 1400 1401 1402 1402 1403 1404 1405 1405 1405 1405 1406 1406 1407 1407 1408 1408 1409 1409 1409 1409 1410 1410 1410 1411 1411 1411 1410 1410 1410 1409 1409 1408 1408 1408 1408 1408 1408 1408
1410 1409 1407 1406 1405 1404 1403 1402 1401 1400 1399 1398 1398 1398 1398 1398 1398 1399 1400 1401 1402 1402 1402 1402 1401 1400 1399 1399 1399 1400 1400 1401 1401 1402 1402 1403 1404 1404 1404 1404 1405 1405 1406 1406 1407 1407 1408 1408 1408 1408 1409 1409 1409 1409 1410 1410 1410 1410 1409 1409 1408 1408 1408 1408 1408 1407 1407 1407 1407
1411 1410 1408 1407 1406 1405 1403 1402 1401 1400 1399 1399 1399 1399 1399 1399 1399 1400 1401 1401 1402 1402 1402 1402 1401 1400 1400 1400 1401 1401 1401 1401 1401 1401 1402 1402 1403 1404 1404 1404 1404 1405 1405 1406 1406 1407 1407 1407 1407 1408 1408 1408 1409 1409 1409 1409 1409 1409 1408 1408 1408 1407 1407 1407 1407 1407 1407 1407 1407
1412 1410 1409 1408 1407 1405 1404 1403 1402 1401 1400 1400 1400 1400 1400 1400 1400 1401 1401 1401 1402 1402 1402 1402 1401 1401 1401 1402 1402 1402 1401 1401 1401 1401 1402 1402 1403 1403 1403 1404 1404 1405 1405 1405 1406 1406 1407 1407 1407 1407 1407 1408 1408 1408 1408 1408 1408 1408 1408 1407 1407 1407 1407 1407 1407 1407 1407 1407 1407
1412 1411 1410 1409 1407 1406 1405 1404 1403 1402 1401 1401 1401 1401 1401 1401 1401 1401 1402 1402 1402 1402 1402 1402 1402 1402 1402 1403 1403 1402 1402 1401 1401 1401 1401 1402 1402 1403 1403 1404 1404 1405 1405 1405 1406 1406 1406 1406 1407 1407 1407 1407 1407 1407 1407 1407 1407 1407 1407 1407 1407 1406 1406 1406 1406 1406 1406 1406 1406
1413 1412 1411 1409 1408 1407 1406 1405 1404 1403 1402 1402 1402 1402 1402 1402 1402 1402 1402 1402 1402 1403 1402 1402 1402 1403 1403 1403 1403 1402 1402 1401 1401 1401 1401 1402 1402 1402 1403 1404 1405 1405 1405 1405 1405 1405 1406 1406 1406 1407 1407 1407 1407 1407 1407 1407 1407 1406 1406 1406 1405 1405 1405 1405 1405 1405 1405 1405 1406
1413 1412 1412 1410 1409 1408 1407 1407 1406 1405 1404 1403 1403 1403 1402 1402 1403 1403 1402 1403 1403 1403 1403 1403 1403 1403 1404 1403 1403 1403 1402 1402 1402 1402 1402 1402 1402 1402 1403 1404 1405 1405 1405 1405 1405 1405 1405 1406 1406 1406 1407 1407 1407 1407 1407 1407 1406 1406 1405 1405 1404 1404 1404 1404 1404 1404 1405 1405 1405
1414 1413 1412 1411 1410 1409 1408 1407 1407 1406 1405 1404 1404 1403 1403 1403 1403 1403 1403 1403 1404 1404 1404 1404 1404 1404 1404 1403 1403 1403 1402 1402 1402 1402 1402 1402 1402 1403 1403 1404 1404 1405 1405 1405 1405 1405 1405 1405 1406 1406 1406 1407 1407 1407 1407 1406 1406 1405 1405 1404 1404 1404 1403 1403 1403 1403 1403 1404 1404
1415 1414 1413 1412 1411 1410 1409 1408 1407 1407 1406 1405 1405 1404 1404 1404 1404 1404 1404 1404 1404 1405 1405 1404 1404 1404 1404 1403 1403 1402 1402 1402 1402 1402 1402 1402 1403 1403 1403 1404 1404 1405 1405 1405 1405 1405 1405 1405 1405 1405 1405 1406 1406 1406 1406 1406 1406 1405 1404 1404 1403 1403 1403 1402 1402 1402 1402 1402 1403
1416 1415 1413 1412 1412 1411 1410 1409 1408 1407 1407 1407 1406 1406 1405 1405 1405 1405 1405 1405 1405 1405 1405 1405 1404 1404 1404 1403 1403 1403 1402 1402 1402 1403 1403 1403 1403 1403 1403 1404 1404 1404 1405 1405 1405 1405 1404 1404 1404 1404 1404 1405 1405 1405 1405 1405 1405 1404 1404 1403 1402 1402 1401 1401 1401 1401 1401 1401 1402
1416 1415 1414 1413 1412 1412 1411 1410 1409 1409 1408 1408 1407 1407 1407 1406 1406 1406 1406 1406 1406 1405 1405 1405 1405 1404 1404 1404 1404 1403 1403 1403 1403 1403 1403 1404 1404 1404 1404 1404 1404 1404 1404 1405 1405 1405 1405 1404 1404 1404 1404 1404 1404 1405 1405 1405 1404 1404 1403 1402 1402 1401 1401 1400 1400 1400 1400 1400 1400
1417 1416 1415 1414 1413 1412 1412 1411 1410 1410 1409 1408 1408 1408 1407 1407 1407 1407 1407 1407 1406 1406 1406 1406 1405 1405 1405 1405 1404 1404 1404 1404 1404 1404 1404 1404 1405 1405 1405 1404 1404 1404 1404 1404 1404 1405 1405 1405 1404 1404 1404 1404 1404 1404 1404 1404 1404 1403 1403 1402 1402 1401 1401 1400 1400 1399 1399 1399 1399
1417 1417 1416 1415 1414 1413 1413 1412 1411 1411 1410 1409 1409 1408 1408 1408 1407 1407 1407 1407 1407 1407 1406 1406 1406 1406 1406 1405 1405 1405 1405 1404 1404 1405 1405 1405 1405 1405 1405 1405 1404 1404 1403 1404 1404 1404 1404 1405 1404 1404 1404 1403 1404 1404 1403 1403 1403 1403 1403 1402 1402 1401 1401 1400 1400 1399 1399 1398 1399
1418 1417 1417 1416 1415 1415 1414 1413 1412 1412 1411 1410 1409 1409 1408 1408 1408 1407 1407 1407 1407 1407 1407 1407 1407 1406 1406 1406 1406 1405 1405 1405 1405 1405 1405 1405 1405 1405 1405 1405 1404 1404 1403 1403 1403 1404 1404 1404 1404 1403 1403 1403 1403 1403 1403 1403 1403 1403 1402 1402 1402 1402 1401 1401 1400 1400 1399 1399 1398
1419 1418 1417 1417 1416 1416 1415 1414 1413 1413 1412 1411 1411 1410 1409 1409 1409 1408 1408 1407 1407 1407 1407 1407 1407 1407 1407 1407 1406 1406 1405 1405 1405 1405 1405 1405 1405 1405 1405 1405 1405 1404 1403 1403 1403 1403 1403 1403 1403 1403 1403 1403 1403 1403 1403 1403 1402 1402 1402 1402 1402 1402 1402 1401 1401 1400 1400 1399 1399
1420 1419 1418 1417 1417 1416 1416 1415 1414 1414 1413 1412 1412 1411 1410 1410 1409 1409 1408 1408 1408 1408 1408 1408 1407 1407 1407 1407 1407 1406 1406 1405 1405 1405 1405 1405 1405 1405 1405 1405 1404 1404 1403 1403 1403 1403 1403 1403 1403 1403 1402 1402 1402 1403 1403 1402 1402 1402 1401 1402 1402 1402 1402 1401 1401 1401 1400 1400 1400